When you browse on this site, cookies collect data to enhance your experience and personalize the content and advertising you see.
Visit our Privacy Policy to learn more. By continuing to use the site, you agree to this use of cookies and data.
  • In Österreich
  • Länderverzeichnis
  • Für 7 Tage
  • Wassertemperatur
  • Satellitenkarten
  • Wetterkarte
  • News
  • Widgets
  • user-avatar
    Anmelden

    Stündliche Wetter Julara

    Heute, 22 Mai, Mittwoch

    Zeit Temperatur Niederschläge Wind Luftdruck Luftfeuchtigkeit
    00:00 +23°C° 0 mm 5 m/S 723 mmHg 26%
    01:00 +23°C° 0 mm 4 m/S 723 mmHg 29%
    02:00 +22°C° 0 mm 4 m/S 723 mmHg 32%
    03:00 +22°C° 0 mm 4 m/S 723 mmHg 36%
    04:00 +21°C° 0 mm 4 m/S 723 mmHg 37%
    05:00 +21°C° 0 mm 3 m/S 723 mmHg 39%
    06:00 +20°C° 0 mm 3 m/S 723 mmHg 41%
    07:00 +22°C° 0 mm 4 m/S 724 mmHg 39%
    08:00 +23°C° 0 mm 4 m/S 724 mmHg 37%
    09:00 +25°C° 0 mm 4 m/S 725 mmHg 33%
    10:00 +27°C° 0 mm 4 m/S 725 mmHg 30%
    11:00 +28°C° 0 mm 4 m/S 724 mmHg 27%
    12:00 +29°C° 0 mm 4 m/S 724 mmHg 24%
    13:00 +30°C° 0 mm 4 m/S 724 mmHg 23%
    14:00 +30°C° 0 mm 4 m/S 723 mmHg 22%
    15:00 +30°C° 0 mm 3 m/S 723 mmHg 22%
    16:00 +29°C° 0 mm 3 m/S 723 mmHg 23%
    17:00 +28°C° 0 mm 3 m/S 723 mmHg 25%
    18:00 +27°C° 0 mm 3 m/S 723 mmHg 27%
    19:00 +26°C° 0 mm 4 m/S 723 mmHg 28%
    20:00 +25°C° 0 mm 4 m/S 724 mmHg 30%
    21:00 +23°C° 0 mm 4 m/S 724 mmHg 32%
    22:00 +22°C° 0 mm 4 m/S 724 mmHg 33%
    23:00 +22°C° 0 mm 4 m/S 724 mmHg 34%

    Morgen, 23 Mai, Donnerstag

    Zeit Temperatur Niederschläge Wind Luftdruck Luftfeuchtigkeit
    00:00 +21°C° 0 mm 4 m/S 724 mmHg 35%
    01:00 +21°C° 0 mm 4 m/S 724 mmHg 36%
    02:00 +20°C° 0 mm 4 m/S 724 mmHg 38%
    03:00 +20°C° 0 mm 4 m/S 723 mmHg 39%
    04:00 +19°C° 0 mm 3 m/S 724 mmHg 39%
    05:00 +19°C° 0 mm 3 m/S 724 mmHg 40%
    06:00 +18°C° 0 mm 3 m/S 724 mmHg 41%
    07:00 +20°C° 0 mm 3 m/S 724 mmHg 38%
    08:00 +21°C° 0 mm 4 m/S 724 mmHg 35%
    09:00 +22°C° 0 mm 4 m/S 725 mmHg 33%
    10:00 +25°C° 0 mm 4 m/S 725 mmHg 30%
    11:00 +26°C° 0 mm 5 m/S 724 mmHg 27%
    12:00 +27°C° 0 mm 5 m/S 724 mmHg 24%
    13:00 +28°C° 0 mm 5 m/S 724 mmHg 22%
    14:00 +28°C° 0 mm 4 m/S 723 mmHg 20%
    15:00 +29°C° 0 mm 4 m/S 722 mmHg 19%
    16:00 +27°C° 0 mm 4 m/S 722 mmHg 20%
    17:00 +26°C° 0 mm 3 m/S 722 mmHg 22%
    18:00 +25°C° 0 mm 3 m/S 723 mmHg 23%
    19:00 +24°C° 0 mm 3 m/S 723 mmHg 24%
    20:00 +22°C° 0 mm 3 m/S 723 mmHg 26%
    21:00 +21°C° 0 mm 3 m/S 724 mmHg 27%
    22:00 +21°C° 0 mm 3 m/S 723 mmHg 28%
    23:00 +20°C° 0 mm 3 m/S 723 mmHg 29%

    übermorgen, 24 Mai, Freitag

    Zeit Temperatur Niederschläge Wind Luftdruck Luftfeuchtigkeit
    00:00 +20°C° 0 mm 3 m/S 723 mmHg 29%
    01:00 +19°C° 0 mm 3 m/S 723 mmHg 31%
    02:00 +19°C° 0 mm 3 m/S 723 mmHg 33%
    03:00 +18°C° 0 mm 2 m/S 722 mmHg 34%
    04:00 +17°C° 0 mm 2 m/S 722 mmHg 37%
    05:00 +17°C° 0 mm 2 m/S 722 mmHg 40%
    06:00 +16°C° 0 mm 2 m/S 722 mmHg 42%
    07:00 +18°C° 0 mm 2 m/S 722 mmHg 40%
    08:00 +19°C° 0 mm 2 m/S 722 mmHg 37%
    09:00 +21°C° 0 mm 2 m/S 723 mmHg 35%
    10:00 +23°C° 0 mm 2 m/S 723 mmHg 32%
    11:00 +25°C° 0 mm 2 m/S 722 mmHg 28%
    12:00 +26°C° 0 mm 3 m/S 722 mmHg 25%
    13:00 +27°C° 0 mm 2 m/S 722 mmHg 24%
    14:00 +27°C° 0 mm 1 m/S 721 mmHg 22%
    15:00 +28°C° 0 mm 1 m/S 720 mmHg 21%
    16:00 +27°C° 0 mm 1 m/S 720 mmHg 23%
    17:00 +25°C° 0 mm 1 m/S 720 mmHg 25%
    18:00 +24°C° 0 mm 1 m/S 720 mmHg 27%
    19:00 +24°C° 0 mm 2 m/S 721 mmHg 27%
    20:00 +23°C° 0 mm 2 m/S 721 mmHg 28%
    21:00 +23°C° 0 mm 2 m/S 721 mmHg 28%
    22:00 +21°C° 0 mm 2 m/S 721 mmHg 29%
    23:00 +20°C° 0 mm 2 m/S 721 mmHg 31%

    25 Mai, Samstag

    Zeit Temperatur Niederschläge Wind Luftdruck Luftfeuchtigkeit
    00:00 +20°C° 0 mm 2 m/S 721 mmHg 32%
    01:00 +20°C° 0 mm 1 m/S 721 mmHg 35%
    02:00 +19°C° 0 mm 1 m/S 720 mmHg 38%
    03:00 +16°C° 0 mm 0 m/S 720 mmHg 41%
    04:00 +16°C° 0 mm 0 m/S 720 mmHg 41%
    05:00 +16°C° 0 mm 0 m/S 720 mmHg 42%
    06:00 +15°C° 0 mm 0 m/S 720 mmHg 42%
    07:00 +17°C° 0 mm 0 m/S 721 mmHg 38%
    08:00 +19°C° 0 mm 0 m/S 721 mmHg 34%
    09:00 +21°C° 0 mm 0 m/S 722 mmHg 30%
    10:00 +22°C° 0 mm 0 m/S 721 mmHg 28%
    11:00 +25°C° 0 mm 1 m/S 721 mmHg 25%
    12:00 +27°C° 0 mm 1 m/S 721 mmHg 23%
    13:00 +27°C° 0 mm 1 m/S 720 mmHg 23%
    14:00 +28°C° 0 mm 2 m/S 720 mmHg 22%
    15:00 +28°C° 0 mm 2 m/S 719 mmHg 21%
    16:00 +27°C° 0 mm 3 m/S 719 mmHg 24%
    17:00 +26°C° 0 mm 4 m/S 720 mmHg 27%
    18:00 +25°C° 0 mm 4 m/S 720 mmHg 30%
    19:00 +23°C° 0 mm 5 m/S 720 mmHg 33%
    20:00 +22°C° 0 mm 5 m/S 721 mmHg 37%
    21:00 +21°C° 0 mm 6 m/S 721 mmHg 40%
    22:00 +20°C° 0 mm 6 m/S 722 mmHg 43%
    23:00 +20°C° 0 mm 6 m/S 722 mmHg 45%

    26 Mai, Sonntag

    Zeit Temperatur Niederschläge Wind Luftdruck Luftfeuchtigkeit
    00:00 +19°C° 0 mm 6 m/S 722 mmHg 48%
    01:00 +17°C° 0 mm 5 m/S 721 mmHg 50%
    02:00 +17°C° 0 mm 5 m/S 721 mmHg 52%
    03:00 +16°C° 0 mm 5 m/S 721 mmHg 55%
    04:00 +16°C° 0 mm 5 m/S 721 mmHg 53%
    05:00 +15°C° 0 mm 4 m/S 722 mmHg 52%
    06:00 +14°C° 0 mm 4 m/S 722 mmHg 51%
    07:00 +15°C° 0 mm 5 m/S 722 mmHg 47%
    08:00 +16°C° 0 mm 6 m/S 723 mmHg 44%
    09:00 +17°C° 0 mm 7 m/S 724 mmHg 41%
    10:00 +20°C° 0 mm 6 m/S 723 mmHg 38%
    11:00 +21°C° 0 mm 6 m/S 723 mmHg 36%
    12:00 +22°C° 0 mm 5 m/S 723 mmHg 34%
    13:00 +23°C° 0 mm 5 m/S 722 mmHg 33%
    14:00 +23°C° 0 mm 4 m/S 722 mmHg 32%
    15:00 +25°C° 0 mm 4 m/S 721 mmHg 32%
    16:00 +23°C° 0 mm 4 m/S 721 mmHg 34%
    17:00 +22°C° 0 mm 3 m/S 721 mmHg 36%
    18:00 +21°C° 0 mm 3 m/S 722 mmHg 38%
    19:00 +20°C° 0 mm 3 m/S 722 mmHg 39%
    20:00 +19°C° 0 mm 4 m/S 722 mmHg 41%
    21:00 +18°C° 0 mm 4 m/S 723 mmHg 43%
    22:00 +18°C° 0 mm 4 m/S 723 mmHg 44%
    23:00 +17°C° 0 mm 4 m/S 722 mmHg 46%

    27 Mai, Montag

    Zeit Temperatur Niederschläge Wind Luftdruck Luftfeuchtigkeit
    00:00 +15°C° 0 mm 4 m/S 722 mmHg 48%
    01:00 +15°C° 0 mm 4 m/S 722 mmHg 50%
    02:00 +14°C° 0 mm 4 m/S 722 mmHg 53%
    03:00 +14°C° 0 mm 3 m/S 722 mmHg 55%
    04:00 +13°C° 0 mm 3 m/S 722 mmHg 57%
    05:00 +13°C° 0 mm 3 m/S 722 mmHg 60%
    06:00 +13°C° 0 mm 3 m/S 722 mmHg 62%
    07:00 +14°C° 0 mm 4 m/S 723 mmHg 58%
    08:00 +15°C° 0 mm 4 m/S 723 mmHg 54%
    09:00 +16°C° 0 mm 5 m/S 723 mmHg 50%
    10:00 +18°C° 0 mm 4 m/S 723 mmHg 46%
    11:00 +20°C° 0 mm 3 m/S 722 mmHg 42%
    12:00 +21°C° 0 mm 3 m/S 722 mmHg 37%
    13:00 +23°C° 0 mm 2 m/S 721 mmHg 35%
    14:00 +23°C° 0 mm 2 m/S 721 mmHg 32%
    15:00 +24°C° 0 mm 2 m/S 720 mmHg 30%
    16:00 +23°C° 0 mm 2 m/S 721 mmHg 32%
    17:00 +21°C° 0 mm 2 m/S 721 mmHg 33%
    18:00 +20°C° 0 mm 2 m/S 721 mmHg 35%
    19:00 +19°C° 0 mm 2 m/S 721 mmHg 36%
    20:00 +19°C° 0 mm 2 m/S 722 mmHg 38%
    21:00 +18°C° 0 mm 3 m/S 722 mmHg 39%
    22:00 +18°C° 0 mm 3 m/S 722 mmHg 41%
    23:00 +17°C° 0 mm 3 m/S 722 mmHg 42%
    Mehr zeigen